1499101200.09,23299,18.0,73934.0,0.05,-5.77,-1.91,0,*77
1499101201.33,23300,18.0,73934.8,0.07,-3.15,-1.47,0,*7D
1499101202.52,23301,18.0,73926.8,0.05,-1.95,-1.29,0,*7C
1499101203.76,23302,18.0,73926.5,0.07,-1.29,-1.05,0,*74
1499101204.99,23303,18.0,73928.5,0.07,-1.17,-1.01,0,*7C
1499101206.24,23304,18.0,73936.0,0.07,-1.13,-0.89,0,*4E
1499101207.47,23305,18.0,73938.5,0.09,-1.01,-1.01,0,*73
1499101208.69,23306,18.0,73936.0,0.09,-1.01,-1.01,0,*70
1499101209.91,23307,18.0,73942.8,0.09,-1.13,-1.01,0,*72
1499101211.11,23308,18.0,73942.8,0.09,-1.05,-0.81,0,*43
1499101212.32,23309,18.0,73950.8,0.09,-0.93,-0.89,0,*74
1499101213.57,23310,18.0,73940.5,0.07,-0.93,-1.01,0,*43
1499101214.74,23311,18.0,73938.8,0.09,-0.81,-0.77,0,*7F
1499101215.93,23312,18.0,73932.3,0.11,-0.61,-0.49,0,*46
1499101217.13,23313,18.0,73926.8,0.11,-0.57,-0.49,0,*42
1499101218.33,23314,18.0,73934.3,0.13,-0.49,-0.45,0,*44
1499101219.53,23315,18.0,73938.5,0.13,-0.65,-0.65,0,*49
1499101220.76,23316,17.94,73942.8,0.13,-0.77,-0.85,0,*47
1499101221.95,23317,17.94,73940.0,0.13,-0.61,-0.61,0,*4B
1499101223.17,23318,18.0,73940.3,0.13,-0.77,-0.85,0,*49
1499101224.41,23319,18.0,73936.3,0.13,-1.43,-1.51,0,*46
1499101225.65,23320,18.0,73942.0,0.13,-1.21,-1.35,0,*4A
1499101226.86,23321,18.0,73932.0,0.13,-1.21,-1.33,0,*4D
1499101228.1,23322,18.0,73934.5,0.13,-1.33,-1.43,0,*4A
1499101229.34,23323,18.0,73928.3,0.15,-0.97,-1.09,0,*7C
1499101230.54,23324,18.0,73932.8,0.13,-0.37,-0.57,0,*4D
1499101231.77,23325,18.0,73934.8,0.13,-0.27,-0.33,0,*4F
1499101232.96,23326,18.0,73936.8,0.17,-0.29,-0.53,0,*40
1499101234.16,23327,18.0,73944.5,0.17,-0.57,-0.69,0,*41
1499101235.35,23328,18.0,73938.5,0.17,-0.57,-0.61,0,*46
1499101236.54,23329,18.0,73940.3,0.17,-0.61,-0.81,0,*4C
1499101237.74,23330,18.0,73944.3,0.21,-0.69,-0.81,0,*49
1499101238.96,23331,17.94,73936.8,0.19,-0.89,-0.93,0,*4E
1499101240.19,23332,17.94,73942.5,0.19,-1.01,-1.13,0,*45
1499101241.4,23333,18.0,73946.3,0.19,-1.25,-1.39,0,*4A
1499101242.61,23334,17.94,73944.3,0.19,-1.75,-1.91,0,*4A
1499101243.82,23335,18.0,73948.5,0.19,-1.43,-1.63,0,*43
1499101245.03,23336,18.0,73938.5,0.17,-1.55,-1.71,0,*4A
1499101246.24,23337,18.0,73950.0,0.17,-1.17,-1.21,0,*48
1499101247.47,23338,18.0,73938.3,0.17,-0.93,-1.17,0,*7F
1499101248.7,23339,17.94,73932.3,0.17,-1.09,-1.29,0,*41
1499101249.9,23340,18.0,73940.8,0.19,-0.97,-1.25,0,*7B
1499101251.14,23341,18.0,73926.8,0.19,-1.01,-1.35,0,*45
1499101252.32,23342,18.0,73926.3,0.19,-1.25,-1.51,0,*42
1499101253.53,23343,17.94,73916.8,0.21,-1.25,-1.51,0,*48
1499101254.77,23344,17.94,73936.5,0.19,-1.35,-1.91,0,*49
1499101256.02,23345,17.94,73934.3,0.21,-1.35,-2.03,0,*4B
1499101257.24,23346,17.94,73918.8,0.19,-1.55,-2.67,0,*47
1499101258.46,23347,18.0,73940.0,0.19,-2.03,-3.55,0,*46
1499101259.67,23348,18.0,73946.0,0.19,-2.51,-4.17,0,*4F
1499101260.86,23349,17.94,73946.3,0.19,-2.99,-4.53,0,*4A
1499101262.04,23350,17.94,73956.5,0.19,-3.07,-4.33,0,*42
1499101263.25,23351,17.94,73948.5,0.21,-3.39,-4.09,0,*4C
1499101264.45,23352,17.94,73946.5,0.19,-2.79,-3.63,0,*4A
1499101265.67,23353,17.94,73958.3,0.19,-3.79,-4.73,0,*4C
1499101266.91,23354,17.94,73962.8,0.19,-5.11,-5.11,0,*46
1499101268.14,23355,18.0,73964.8,0.17,-6.69,-5.27,0,*40
1499101269.32,23356,17.94,73964.3,0.15,-6.47,-4.49,0,*44
1499101270.53,23357,17.94,73958.0,0.15,-4.65,-3.43,0,*4A
1499101271.71,23358,17.94,73944.0,0.15,-3.23,-2.91,0,*4E
1499101272.96,23359,18.0,73948.8,0.11,-2.51,-2.11,0,*47
1499101274.19,23360,17.94,73942.5,0.11,-2.19,-1.83,0,*49
1499101275.41,23361,17.94,73938.0,0.13,-1.71,-1.51,0,*48
1499101276.67,23362,17.94,73942.8,0.13,-1.35,-1.35,0,*49
1499101277.91,23363,17.94,73948.8,0.13,-1.35,-1.21,0,*4D
1499101279.13,23364,17.94,73946.0,0.11,-1.51,-1.43,0,*4E
1499101280.34,23365,17.94,73944.5,0.13,-1.25,-1.33,0,*49
1499101281.55,23366,17.94,73942.3,0.13,-1.25,-1.25,0,*4D
1499101282.78,23367,17.94,73944.3,0.13,-1.13,-1.25,0,*49
1499101284.0,23368,17.94,73944.8,0.13,-1.21,-1.33,0,*40
1499101285.21,23369,17.94,73944.8,0.13,-1.33,-1.33,0,*42
1499101286.47,23370,18.0,73936.8,0.13,-1.47,-1.43,0,*4E
1499101287.69,23371,17.94,73938.8,0.13,-1.25,-1.21,0,*4F
1499101288.91,23372,18.0,73948.5,0.13,-1.21,-1.21,0,*48
1499101290.16,23373,17.94,73948.0,0.13,-1.09,-1.13,0,*42
1499101291.39,23374,17.94,73944.8,0.11,-1.33,-1.43,0,*4B
1499101292.64,23375,17.94,73946.0,0.13,-1.33,-1.35,0,*49
1499101293.89,23376,17.94,73942.0,0.11,-1.43,-1.47,0,*4A
1499101295.1,23377,17.94,73940.5,0.11,-1.59,-1.71,0,*45
1499101296.3,23378,17.94,73936.5,0.13,-1.59,-1.63,0,*4B
1499101297.51,23379,17.94,73932.5,0.11,-1.21,-1.25,0,*45
1499101298.76,23380,17.94,73934.8,0.11,-1.01,-1.09,0,*4F
1499101300.0,23381,17.94,73938.5,0.13,-1.09,-1.21,0,*4E
1499101301.23,23382,17.94,73940.3,0.13,-1.13,-1.25,0,*42
1499101302.49,23383,17.94,73946.5,0.13,-1.87,-1.95,0,*45
1499101303.69,23384,17.94,73946.0,0.11,-2.19,-2.27,0,*4E
1499101304.89,23385,17.94,73936.8,0.11,-2.19,-2.27,0,*4F
1499101306.14,23386,17.94,73948.8,0.11,-1.83,-1.95,0,*46
1499101307.37,23387,17.94,73930.3,0.09,-2.03,-2.11,0,*7A
1499101308.6,23388,17.94,73910.5,0.09,-1.99,-1.87,0,*79
1499101309.8,23389,17.94,73914.0,0.09,-1.87,-1.79,0,*76
1499101311.01,23390,17.94,73914.0,0.07,-1.29,-1.25,0,*7D
1499101312.25,23391,17.94,73914.5,0.07,-0.93,-0.93,0,*70
1499101313.45,23392,17.94,73930.3,0.07,-0.81,-0.81,0,*73
1499101314.69,23393,17.94,73930.5,0.07,-0.89,-0.93,0,*79
1499101315.86,23394,17.94,73934.0,0.09,-0.77,-0.77,0,*7B
1499101317.03,23395,17.94,73942.8,0.09,-0.69,-0.77,0,*75
1499101318.24,23396,17.94,73942.0,0.09,-0.89,-0.89,0,*79
1499101319.46,23397,17.94,73946.0,0.09,-1.01,-1.13,0,*7B
1499101320.66,23398,17.94,73942.3,0.09,-1.13,-1.17,0,*73
1499101321.87,23399,17.94,73936.5,0.09,-1.05,-1.17,0,*75
1499101323.07,23400,17.94,73942.3,0.09,-1.13,-1.17,0,*75
1499101324.28,23401,17.94,73950.8,0.09,-0.93,-1.13,0,*49
1499101325.52,23402,17.94,73948.0,0.11,-0.85,-0.85,0,*4A
1499101326.72,23403,17.94,73954.5,0.13,-1.51,-1.59,0,*41
1499101327.95,23404,17.94,73932.3,0.11,-1.75,-1.83,0,*45
1499101329.21,23405,17.94,73934.8,0.11,-1.35,-1.43,0,*4C
1499101330.43,23406,17.94,73924.8,0.09,-1.01,-1.01,0,*77
1499101331.63,23407,17.94,73926.3,0.11,-0.57,-0.65,0,*4E
1499101332.82,23408,18.0,73942.3,0.11,-0.45,-0.57,0,*43
1499101334.02,23409,17.94,73938.8,0.13,-0.33,-0.45,0,*42
1499101335.22,23410,17.94,73936.5,0.13,-0.37,-0.57,0,*4D
1499101336.42,23411,17.94,73948.3,0.13,-0.33,-0.45,0,*4B
1499101337.6,23412,17.94,73960.0,0.15,-0.41,-0.61,0,*4D
1499101338.82,23413,17.94,73946.3,0.17,-0.85,-1.29,0,*7B
1499101340.05,23414,17.94,73956.0,0.17,-0.93,-1.71,0,*76
1499101341.31,23415,17.94,73946.8,0.17,-1.43,-4.01,0,*49
1499101342.53,23416,17.94,73950.8,0.17,-2.23,-5.65,0,*4C
1499101343.74,23417,17.94,73946.5,0.17,-4.09,-9.67,0,*4D
1499101344.96,23418,17.94,73948.0,0.17,-5.47,-10.35,0,*76
1499101346.17,23419,17.94,73946.0,0.17,-8.97,-16.79,0,*79
1499101347.44,23420,17.94,73940.0,0.17,-11.77,-19.65,0,*47
1499101348.69,23421,17.94,73948.3,0.17,-13.73,-19.65,0,*40
1499101349.89,23422,17.94,73958.5,0.15,-17.35,-23.75,0,*4F
1499101351.11,23423,17.94,73946.5,0.13,-19.51,-25.87,0,*4F
1499101352.39,23424,17.94,73938.5,0.13,-23.29,-25.71,0,*47
1499101353.61,23425,17.94,73946.3,0.11,-23.13,-26.61,0,*4F
1499101354.86,23426,17.94,73940.5,0.07,-26.49,-30.73,0,*75
1499101356.09,23427,17.94,73942.8,0.07,-26.61,-28.79,0,*7D
1499101357.31,23428,17.94,73942.3,0.05,-26.03,-28.59,0,*76
1499101358.53,23429,17.94,73940.5,0.01,-26.03,-27.23,0,*71
1499101359.77,23430,17.94,73932.0,0.05,-23.33,-26.29,0,*70
1499101360.99,23431,17.94,73942.0,0.01,-24.71,-26.23,0,*7E
1499101362.19,23432,17.94,73944.0,0.01,-24.31,-24.47,0,*79
1499101363.46,23433,17.94,73938.8,-0.01,-22.17,-20.35,0,*56
1499101364.64,23434,17.94,73942.0,-0.03,-20.09,-19.51,0,*56
1499101365.84,23435,17.94,73940.5,-0.03,-18.83,-19.47,0,*59
1499101367.11,23436,17.94,73944.0,-0.05,-23.19,-20.79,0,*50
1499101368.33,23437,17.94,73938.3,-0.07,-24.41,-18.41,0,*59
1499101369.58,23438,17.94,73936.3,-0.09,-24.35,-16.23,0,*51
1499101370.81,23439,17.94,73942.5,-0.11,-22.17,-13.43,0,*6C
1499101372.06,23440,17.94,73936.3,-0.11,-18.93,-10.41,0,*66
1499101373.31,23441,17.94,73932.8,-0.13,-15.71,-7.69,0,*58
1499101374.5,23442,17.94,73936.5,-0.11,-10.53,-5.39,0,*5B
1499101375.68,23443,17.94,73928.3,-0.11,-8.33,-4.41,0,*6B
1499101376.9,23444,17.94,73928.5,-0.13,-6.81,-4.13,0,*6E
1499101378.14,23445,17.94,73928.5,-0.13,-5.55,-3.55,0,*60
1499101379.36,23446,17.94,73920.3,-0.13,-4.41,-2.91,0,*6E
1499101380.55,23447,17.94,73920.8,-0.11,-3.75,-2.43,0,*62
1499101381.76,23448,17.94,73928.3,-0.09,-3.07,-2.19,0,*5E
1499101382.97,23449,17.94,73942.0,-0.11,-3.71,-3.07,0,*69
1499101384.19,23450,17.94,73930.0,-0.11,-3.23,-2.75,0,*62
1499101385.4,23451,17.94,73906.3,-0.11,-2.47,-2.35,0,*64
1499101386.59,23452,17.94,73906.5,-0.11,-2.35,-2.23,0,*65
1499101387.8,23453,17.94,73906.8,-0.09,-2.43,-2.23,0,*5C
1499101388.99,23454,17.94,73894.0,-0.11,-2.43,-2.19,0,*6B
1499101390.2,23455,17.94,73914.8,-0.11,-2.19,-1.83,0,*65
1499101391.41,23456,17.94,73922.5,-0.11,-2.23,-1.87,0,*6B
1499101392.62,23457,17.94,73924.5,-0.11,-2.31,-1.95,0,*6A
1499101393.86,23458,17.94,73928.0,-0.11,-1.95,-1.87,0,*6B
1499101395.07,23459,17.94,73932.8,-0.09,-1.71,-1.59,0,*5A
1499101396.25,23460,17.94,73936.0,-0.11,-1.67,-1.59,0,*6E
1499101397.45,23461,17.94,73940.5,-0.11,-1.67,-1.67,0,*62
1499101398.68,23462,17.94,73936.3,-0.11,-1.99,-1.95,0,*6D
1499101399.92,23463,17.94,73938.3,-0.09,-2.19,-2.11,0,*51
1499101401.13,23464,17.94,73938.0,-0.09,-2.35,-2.35,0,*5E
1499101402.37,23465,17.94,73924.5,-0.11,-2.59,-2.71,0,*6C
1499101403.61,23466,17.94,73922.3,-0.15,-2.63,-2.75,0,*66
1499101404.89,23467,17.94,73910.5,-0.13,-2.47,-2.47,0,*66
1499101406.13,23468,17.94,73912.0,-0.13,-1.79,-1.87,0,*68
1499101407.35,23469,17.94,73916.8,-0.13,-1.79,-1.79,0,*68
1499101408.53,23470,17.94,73914.5,-0.15,-1.59,-1.63,0,*6F
1499101409.78,23471,17.94,73922.5,-0.13,-1.47,-1.51,0,*66
1499101411.05,23472,17.94,73934.3,-0.13,-1.35,-1.47,0,*67
1499101412.26,23473,17.94,73938.3,-0.11,-1.43,-1.55,0,*66
1499101413.5,23474,17.94,73932.5,-0.11,-1.83,-2.07,0,*69
1499101414.71,23475,17.94,73928.0,-0.11,-2.35,-2.59,0,*6D
1499101415.95,23476,17.94,73928.5,-0.13,-2.63,-2.79,0,*6D
1499101417.22,23477,17.94,73910.5,-0.13,-2.67,-2.67,0,*67
1499101418.44,23478,17.94,73912.8,-0.13,-2.35,-2.39,0,*64
1499101419.63,23479,17.94,73918.8,-0.15,-1.79,-1.79,0,*6F
1499101420.9,23480,17.94,73916.0,-0.13,-1.87,-1.91,0,*68
1499101422.09,23481,17.94,73906.8,-0.15,-2.27,-2.23,0,*6C
1499101423.3,23482,17.94,73904.8,-0.15,-2.23,-1.91,0,*61
1499101424.55,23483,17.94,73906.3,-0.13,-2.11,-1.75,0,*6D
1499101425.77,23484,17.94,73900.3,-0.13,-1.75,-1.63,0,*6C
1499101426.98,23485,17.94,73922.0,-0.13,-1.63,-1.51,0,*6B
1499101428.19,23486,17.94,73912.5,-0.13,-1.59,-1.75,0,*67
1499101429.41,23487,17.94,73902.0,-0.13,-1.51,-1.63,0,*69
1499101430.63,23488,17.94,73908.8,-0.13,-1.59,-1.71,0,*6D
1499101431.83,23489,17.94,73912.0,-0.11,-1.67,-1.95,0,*69
1499101433.05,23490,17.94,73908.0,-0.11,-2.07,-2.35,0,*6D
1499101434.29,23491,17.94,73922.0,-0.11,-2.63,-2.71,0,*6E
1499101435.48,23492,17.94,73920.8,-0.11,-3.07,-3.11,0,*69
1499101436.69,23493,17.94,73922.5,-0.09,-3.87,-4.25,0,*59
1499101437.9,23494,17.94,73952.3,-0.09,-4.13,-4.49,0,*5E
1499101439.11,23495,17.94,73946.5,-0.09,-4.37,-4.29,0,*5F
1499101440.35,23496,17.94,73948.3,-0.09,-5.15,-3.75,0,*53
1499101441.59,23497,17.94,73922.0,-0.09,-5.43,-4.01,0,*55
1499101442.82,23498,17.94,73906.0,-0.09,-5.15,-3.95,0,*53
1499101444.07,23499,17.94,73904.5,-0.09,-3.63,-2.95,0,*54
1499101445.27,23500,17.94,73904.8,-0.09,-2.87,-2.43,0,*55
1499101446.52,23501,17.94,73918.3,-0.09,-2.47,-2.31,0,*5D
1499101447.76,23502,17.94,73918.8,-0.09,-2.19,-2.07,0,*50
1499101449.0,23503,17.94,73918.3,-0.09,-1.75,-2.07,0,*58
1499101450.21,23504,17.94,73914.3,-0.09,-1.75,-2.35,0,*5E
1499101451.42,23505,17.94,73912.0,-0.07,-2.03,-2.83,0,*5E
1499101452.62,23506,17.94,73930.3,-0.05,-2.27,-3.75,0,*51
1499101453.86,23507,17.94,73936.8,-0.05,-3.75,-6.23,0,*50
1499101455.08,23508,17.94,73940.0,-0.05,-5.55,-6.81,0,*53
1499101456.3,23509,17.94,73936.8,-0.07,-6.97,-6.31,0,*56
1499101457.54,23510,17.94,73926.3,-0.07,-5.89,-4.69,0,*5D
1499101458.75,23511,17.94,73922.3,-0.07,-4.21,-3.59,0,*5B
1499101459.99,23512,17.94,73916.5,-0.09,-3.51,-3.39,0,*50
1499101461.2,23513,17.94,73924.3,-0.09,-3.39,-3.39,0,*5F
1499101462.47,23514,17.94,73922.8,-0.09,-2.75,-2.47,0,*59
1499101463.65,23515,17.94,73922.0,-0.11,-2.19,-2.19,0,*60
1499101464.89,23516,17.94,73922.8,-0.09,-2.31,-2.63,0,*5D
1499101466.13,23517,17.94,73926.3,-0.09,-2.95,-3.71,0,*50
1499101467.37,23518,17.94,73934.8,-0.09,-3.75,-4.77,0,*51
1499101468.6,23519,17.94,73936.3,-0.09,-4.77,-6.35,0,*51
1499101469.79,23520,17.94,73936.3,-0.11,-6.89,-6.35,0,*61
1499101471.06,23521,17.94,73934.0,-0.09,-8.07,-7.01,0,*57
1499101472.25,23522,17.94,73936.8,-0.11,-7.53,-7.15,0,*66
1499101473.46,23523,17.94,73926.0,-0.11,-6.97,-5.43,0,*6F
1499101474.68,23524,17.94,73922.8,-0.11,-5.03,-4.49,0,*6D
1499101475.91,23525,17.94,73936.3,-0.11,-4.85,-4.93,0,*64
1499101477.12,23526,17.94,73930.0,-0.11,-5.27,-4.37,0,*60
1499101478.3,23527,17.94,73930.3,-0.11,-4.49,-3.11,0,*6B
1499101479.49,23528,17.94,73912.5,-0.11,-3.35,-2.43,0,*6E
1499101480.7,23529,17.94,73918.8,-0.11,-2.43,-1.87,0,*64
1499101481.94,23530,17.94,73930.8,-0.09,-1.95,-1.75,0,*50
1499101483.15,23531,17.94,73920.5,-0.11,-2.11,-1.59,0,*69
1499101484.36,23532,17.94,73920.5,-0.11,-1.59,-1.43,0,*6E
1499101485.59,23533,17.94,73920.8,-0.09,-1.35,-1.25,0,*5C
1499101486.82,23534,17.94,73918.5,-0.09,-1.35,-1.25,0,*5B
1499101488.08,23535,17.94,73922.3,-0.09,-1.01,-1.01,0,*5B
1499101489.29,23536,17.94,73918.8,-0.09,-0.81,-0.81,0,*58
1499101490.5,23537,17.94,73908.5,-0.09,-0.69,-0.57,0,*54
1499101491.7,23538,17.94,73904.8,-0.05,-0.41,-0.41,0,*5A
1499101492.91,23539,17.94,73912.5,-0.07,-0.23,-0.19,0,*50
1499101494.11,23540,17.94,73918.5,-0.05,-0.15,-0.15,0,*55
1499101495.32,23541,17.94,73914.8,-0.01,-0.11,-0.11,0,*50
1499101496.54,23542,17.94,73922.8,-0.01,-0.15,-0.23,0,*56
1499101497.74,23543,17.94,73922.8,-0.01,-0.03,-0.11,0,*61
1499101498.95,23544,17.94,73920.0,-0.01,-0.11,-0.11,0,*55
1499101500.12,23545,17.94,73914.5,0.01,-0.03,-0.15,0,*4E
1499101501.31,23546,17.94,73914.0,0.05,-0.11,-0.23,0,*7F
1499101502.47,23547,17.94,73902.5,0.09,-0.03,-0.29,0,*4B
1499101503.63,23548,17.94,73910.5,0.09,-0.19,-0.65,0,*77
1499101504.83,23549,17.94,73882.8,0.09,-0.77,-1.35,0,*4A
1499101506.04,23550,17.94,73920.8,0.09,-1.17,-1.99,0,*73
1499101507.31,23551,17.94,73910.0,0.13,-1.35,-1.99,0,*49
1499101508.52,23552,17.94,73908.0,0.13,-1.75,-2.19,0,*45
1499101509.72,23553,17.94,73916.5,0.13,-2.27,-3.15,0,*4D
1499101510.97,23554,17.94,73920.0,0.13,-3.39,-5.61,0,*41
1499101512.24,23555,17.94,73926.5,0.13,-8.11,-15.35,0,*71
1499101513.49,23556,17.94,73922.0,0.13,-16.55,-25.03,0,*4B
1499101514.73,23557,17.94,73926.0,0.13,-25.13,-27.19,0,*41
1499101515.98,23558,17.94,73914.3,0.13,-21.57,-23.13,0,*44
1499101517.23,23559,17.94,73918.0,0.11,-17.83,-20.49,0,*47
1499101518.48,23560,17.94,73914.0,0.11,-19.51,-22.17,0,*45
1499101519.7,23561,17.94,73914.8,0.11,-18.73,-20.73,0,*45
1499101520.95,23562,17.94,73916.0,0.11,-19.23,-20.73,0,*42
1499101522.19,23563,17.94,73920.3,0.11,-16.51,-13.65,0,*4E
1499101523.42,23564,17.94,73924.0,0.11,-11.77,-9.97,0,*7C
1499101524.63,23565,17.94,73924.0,0.11,-10.93,-9.27,0,*7D
1499101525.85,23566,17.94,73922.8,0.07,-10.45,-6.35,0,*4E
1499101527.07,23567,17.94,73922.3,0.09,-7.99,-4.73,0,*76
1499101528.3,23568,17.94,73910.8,0.05,-5.03,-3.59,0,*7B
1499101529.52,23569,17.94,73902.8,0.05,-3.47,-3.55,0,*70
1499101530.68,23570,17.94,73888.8,0.01,-3.19,-3.23,0,*76
1499101531.88,23571,17.94,73902.0,0.01,-2.83,-2.71,0,*73
1499101533.08,23572,17.94,73900.0,0.05,-2.67,-3.03,0,*7A
1499101534.28,23573,17.94,73924.8,0.07,-2.87,-4.17,0,*75
1499101535.47,23574,17.94,73922.3,0.01,-3.95,-6.59,0,*7E
1499101536.64,23575,17.94,73922.0,0.01,-5.55,-8.75,0,*75
1499101537.85,23576,17.94,73940.8,0.05,-7.65,-12.03,0,*49
1499101539.09,23577,17.94,73934.3,0.01,-11.51,-16.23,0,*7A
1499101540.3,23578,17.94,73926.0,0.01,-15.81,-16.97,0,*73
1499101541.48,23579,17.94,73932.0,0.05,-17.69,-21.43,0,*7F
1499101542.66,23580,17.94,73938.8,0.01,-21.39,-21.39,0,*70
1499101543.9,23581,17.94,73924.8,0.01,-21.27,-18.89,0,*7F
1499101545.11,23582,17.94,73936.5,-0.01,-22.67,-18.79,0,*59
1499101546.38,23583,17.94,73932.0,-0.01,-22.21,-16.09,0,*53
1499101547.63,23584,17.94,73924.3,-0.01,-16.51,-14.33,0,*5F
1499101548.9,23585,17.94,73908.0,-0.05,-12.61,-12.53,0,*5D
1499101550.15,23586,17.94,73918.5,-0.05,-14.23,-12.61,0,*5F
1499101551.41,23587,17.94,73922.8,-0.05,-15.57,-11.51,0,*5C
1499101552.62,23588,17.94,73928.5,-0.05,-13.93,-9.05,0,*65
1499101553.81,23589,17.94,73934.8,-0.07,-12.39,-7.19,0,*64
1499101555.02,23590,17.94,73930.0,-0.07,-11.89,-6.69,0,*62
1499101556.25,23591,17.94,73926.0,-0.09,-11.45,-5.55,0,*61
1499101557.5,23592,17.94,73930.3,-0.11,-8.07,-5.03,0,*66
1499101558.72,23593,17.94,73922.0,-0.13,-6.89,-4.57,0,*6D
1499101559.96,23594,17.94,73912.0,-0.13,-5.73,-4.45,0,*6F
1499101561.19,23595,17.94,73910.0,-0.13,-5.61,-4.17,0,*6A
1499101562.42,23596,17.94,73912.0,-0.15,-4.77,-3.63,0,*6D
1499101563.66,23597,17.94,73918.3,-0.15,-3.43,-2.63,0,*6D
1499101564.91,23598,17.94,73916.8,-0.13,-2.75,-2.35,0,*63
1499101566.1,23599,17.94,73918.8,-0.15,-2.87,-2.39,0,*65
1499101567.32,23600,17.94,73908.0,-0.15,-2.47,-2.15,0,*64
1499101568.54,23601,17.94,73910.5,-0.15,-2.23,-1.99,0,*60
1499101569.8,23602,17.94,73904.8,-0.17,-1.95,-1.95,0,*63
1499101571.02,23603,17.94,73902.3,-0.17,-1.75,-1.67,0,*61
1499101572.24,23604,17.94,73882.0,-0.17,-1.51,-1.51,0,*65
1499101573.49,23605,17.94,73890.0,-0.17,-1.39,-1.33,0,*6E
1499101574.75,23606,17.94,73902.8,-0.17,-1.09,-1.09,0,*67
1499101576.0,23607,17.94,73910.3,-0.13,-0.93,-0.93,0,*62
1499101577.22,23608,17.94,73914.0,-0.13,-0.73,-0.73,0,*6D
1499101578.43,23609,17.94,73912.3,-0.13,-0.73,-0.77,0,*68
1499101579.61,23610,17.94,73914.3,-0.15,-0.65,-0.65,0,*62
1499101580.81,23611,17.94,73912.3,-0.13,-0.61,-0.61,0,*65
1499101581.98,23612,17.94,73912.3,-0.11,-0.57,-0.61,0,*61
1499101583.18,23613,17.94,73918.3,-0.09,-0.57,-0.61,0,*59
1499101584.41,23614,17.94,73922.0,-0.09,-0.81,-0.89,0,*53
1499101585.65,23615,17.94,73922.3,-0.09,-1.21,-1.35,0,*5F
1499101586.86,23616,17.94,73916.0,-0.09,-1.67,-1.75,0,*5A
1499101588.1,23617,17.94,73924.0,-0.09,-1.95,-2.31,0,*55
1499101589.31,23618,17.94,73906.5,-0.09,-2.23,-2.43,0,*51
1499101590.55,23619,17.94,73906.0,-0.09,-2.23,-2.51,0,*53
1499101591.8,23620,17.94,73904.3,-0.11,-2.11,-2.51,0,*61
1499101593.03,23621,17.94,73910.3,-0.09,-1.95,-2.19,0,*5A
1499101594.24,23622,17.94,73906.0,-0.09,-1.59,-1.71,0,*54
1499101595.45,23623,17.94,73912.5,-0.09,-1.59,-1.59,0,*5F
1499101596.71,23624,17.94,73910.8,-0.09,-1.87,-1.99,0,*57
1499101597.95,23625,17.94,73924.8,-0.09,-2.75,-2.99,0,*5B
1499101599.17,23626,17.94,73922.5,-0.11,-4.29,-4.01,0,*69
1499101600.36,23627,17.94,73922.8,-0.11,-6.59,-4.37,0,*68
1499101601.6,23628,17.94,73928.3,-0.11,-8.07,-4.01,0,*67
1499101602.81,23629,17.94,73926.3,-0.11,-8.37,-3.59,0,*6F
1499101604.03,23630,17.94,73922.5,-0.13,-4.57,-2.87,0,*6D
1499101605.24,23631,17.94,73922.3,-0.13,-2.87,-2.27,0,*6D
1499101606.49,23632,17.94,73922.8,-0.13,-2.23,-1.87,0,*69
1499101607.73,23633,17.88,73916.0,-0.13,-2.15,-2.03,0,*62
1499101608.92,23634,17.94,73908.5,-0.15,-1.71,-1.63,0,*67
1499101610.11,23635,17.94,73898.8,-0.15,-1.59,-1.59,0,*65
1499101611.38,23636,17.94,73896.0,-0.13,-1.05,-1.05,0,*60
1499101612.63,23637,17.94,73890.0,-0.13,-0.89,-0.89,0,*61
1499101613.89,23638,17.94,73902.8,-0.13,-0.89,-1.01,0,*5F
1499101615.1,23639,17.94,73928.0,-0.11,-0.89,-1.21,0,*5E
1499101616.3,23640,17.94,73920.0,-0.11,-1.21,-1.75,0,*62
1499101617.51,23641,17.94,73920.5,-0.09,-1.55,-2.43,0,*5F
1499101618.69,23642,17.94,73924.0,-0.07,-2.31,-4.33,0,*52
1499101619.92,23643,17.94,73938.5,-0.09,-4.73,-8.29,0,*5A
1499101621.19,23644,17.94,73924.3,-0.09,-9.15,-9.53,0,*5C
1499101622.41,23645,17.94,73922.8,-0.09,-11.19,-7.11,0,*60
1499101623.63,23646,17.94,73902.0,-0.09,-7.15,-4.65,0,*58
1499101624.82,23647,17.94,73908.0,-0.07,-3.83,-3.03,0,*5B
1499101626.02,23648,17.94,73908.0,-0.09,-2.87,-3.23,0,*5D
1499101627.2,23649,17.94,73910.8,-0.07,-2.91,-3.31,0,*56
1499101628.41,23650,17.94,73916.0,-0.09,-2.83,-4.49,0,*5B
1499101629.62,23651,17.94,73922.0,-0.09,-3.31,-6.89,0,*5C
1499101630.84,23652,17.94,73926.8,-0.07,-5.89,-12.29,0,*6B
1499101632.06,23653,17.94,73926.8,-0.07,-8.71,-11.85,0,*65
1499101633.28,23654,17.94,73924.5,-0.05,-11.15,-12.47,0,*57
1499101634.48,23655,17.94,73918.5,-0.07,-12.39,-12.89,0,*5B
1499101635.69,23656,17.94,73918.5,-0.07,-14.61,-15.01,0,*54
1499101636.94,23657,17.94,73918.3,-0.07,-19.65,-17.63,0,*5A
1499101638.16,23658,17.94,73920.3,-0.07,-21.97,-15.75,0,*56
1499101639.41,23659,17.94,73912.5,-0.09,-20.63,-12.79,0,*58
1499101640.64,23660,17.94,73918.8,-0.09,-16.45,-10.23,0,*5E
1499101641.9,23661,17.94,73912.8,-0.09,-12.79,-8.03,0,*6F
1499101643.14,23662,17.94,73914.0,-0.09,-11.51,-6.35,0,*6E
1499101644.36,23663,17.94,73920.8,-0.09,-8.85,-5.97,0,*55
1499101645.62,23664,17.94,73916.0,-0.09,-7.01,-5.93,0,*55
1499101646.84,23665,17.94,73922.0,-0.09,-5.55,-6.35,0,*58
1499101648.06,23666,17.94,73922.3,-0.11,-5.65,-6.43,0,*60
1499101649.3,23667,17.94,73918.3,-0.09,-5.93,-6.55,0,*56
1499101650.54,23668,17.94,73924.3,-0.07,-5.77,-5.61,0,*59
1499101651.74,23669,17.94,73922.3,-0.07,-5.39,-7.05,0,*52
1499101652.95,23670,17.94,73918.5,-0.07,-5.81,-8.33,0,*53
1499101654.16,23671,17.94,73918.5,-0.07,-8.17,-11.73,0,*6C
1499101655.37,23672,17.94,73914.0,-0.05,-10.01,-13.69,0,*5A
1499101656.61,23673,17.94,73916.8,-0.07,-11.89,-11.81,0,*5C
1499101657.84,23674,17.94,73924.0,-0.05,-9.71,-10.97,0,*61
1499101659.03,23675,17.94,73922.0,-0.07,-10.45,-13.11,0,*50
1499101660.3,23676,17.94,73922.3,-0.05,-12.07,-17.11,0,*51
1499101661.55,23677,17.94,73922.5,-0.07,-14.55,-19.81,0,*54
1499101662.77,23678,17.94,73920.0,-0.11,-15.43,-22.93,0,*61
1499101664.01,23679,17.94,73924.5,-0.11,-15.75,-23.23,0,*6F
1499101665.24,23680,17.94,73926.3,-0.11,-20.59,-28.25,0,*6C
1499101666.51,23681,17.94,73926.5,-0.13,-25.45,-29.17,0,*67
1499101667.78,23682,17.94,73934.3,-0.13,-29.35,-30.83,0,*6A
1499101669.0,23683,17.94,73910.8,-0.15,-28.43,-21.73,0,*62
1499101670.24,23684,17.94,73900.8,-0.17,-20.59,-20.39,0,*6B
1499101671.5,23685,17.94,73926.8,-0.17,-20.59,-19.61,0,*6D
1499101672.75,23686,17.94,73924.5,-0.21,-26.13,-22.73,0,*68
1499101673.98,23687,17.94,73918.8,-0.17,-25.65,-21.39,0,*63
1499101675.21,23688,17.94,73920.3,-0.17,-25.87,-19.51,0,*65
1499101676.47,23689,17.94,73916.5,-0.17,-28.05,-18.69,0,*69
1499101677.7,23690,17.94,73926.0,-0.21,-29.07,-16.13,0,*64
1499101678.97,23691,17.94,73910.5,-0.23,-27.23,-12.75,0,*6B
1499101680.22,23692,17.94,73920.3,-0.23,-24.61,-9.41,0,*50
1499101681.42,23693,17.94,73924.3,-0.25,-20.43,-6.59,0,*55
1499101682.66,23694,17.94,73926.5,-0.23,-15.67,-5.15,0,*5F
1499101683.91,23695,17.94,73926.8,-0.23,-11.33,-4.99,0,*5E
1499101685.1,23696,17.94,73922.3,-0.21,-8.85,-4.61,0,*6D
1499101686.31,23697,17.94,73916.0,-0.23,-6.69,-4.09,0,*6C
1499101687.52,23698,17.94,73918.8,-0.25,-5.39,-3.47,0,*6E
1499101688.72,23699,17.94,73916.5,-0.23,-4.37,-3.11,0,*65
1499101689.97,23700,17.94,73916.8,-0.25,-3.51,-2.71,0,*62
1499101691.19,23701,17.94,73914.0,-0.25,-2.99,-2.55,0,*60
1499101692.44,23702,17.94,73916.0,-0.23,-2.47,-2.23,0,*67
1499101693.7,23703,17.88,73920.3,-0.23,-1.87,-1.83,0,*60
1499101694.97,23704,17.94,73926.0,-0.23,-1.83,-2.07,0,*6C
1499101696.22,23705,17.94,73916.5,-0.25,-2.11,-2.47,0,*67
1499101697.41,23706,17.94,73920.0,-0.25,-2.31,-2.95,0,*69
1499101698.63,23707,17.94,73916.3,-0.25,-2.11,-3.19,0,*6F
1499101699.85,23708,17.94,73926.5,-0.25,-2.47,-4.09,0,*65
1499101701.07,23709,17.94,73920.3,-0.25,-2.71,-4.41,0,*6D
1499101702.29,23710,17.94,73922.0,-0.25,-2.87,-5.31,0,*6A
1499101703.51,23711,17.94,73922.3,-0.25,-3.07,-5.93,0,*6A
1499101704.72,23712,17.94,73920.5,-0.25,-3.23,-5.31,0,*67
1499101705.95,23713,17.88,73908.3,-0.29,-3.75,-4.81,0,*63